Pellston, MI

1:56 PM EST on December 02, 2016 (GMT -0500)
Pellston Regional Airport Of Emmet County

Weather History for KPLN - May, 2014

Change the Weather History Date:

Sunday, May 4, 2014

  Actual Average Record
Temperature  
Mean Temperature 38 °F -  
Max Temperature 46 °F 61 °F 84 °F (2000)
Min Temperature 30 °F 33 °F 19 °F (1967)
Degree Days  
Heating Degree Days 27    
Moisture  
Dew Point 33 °F    
Average Humidity 75    
Maximum Humidity 92    
Minimum Humidity 58    
Precipitation  
Precipitation 0.03 in - - ()
Sea Level Pressure  
Sea Level Pressure 29.95 in    
Wind  
Wind Speed 10 mph (WNW)    
Max Wind Speed 21 mph    
Max Gust Speed 28 mph    
Visibility 10 miles    
Events Rain    
Averages and records for this station are not official NWS values.
T = Trace of Precipitation, MM = Missing Value Source: NWS Daily Summary

Daily Weather History Graph

Daily Weather History Graph

Search for Another Location

Airport or City:

Trip Planner

Search our weather history database for the weather conditions in past years. The results will help you decide how hot, cold, wet, or windy it might be!

Date:

Astronomy

May. 04, 2014 Rise Set
Actual Time 6:22 AM EDT 8:49 PM EDT
Civil Twilight 5:49 AM EDT 9:23 PM EDT
Nautical Twilight 5:08 AM EDT 10:04 PM EDT
Astronomical Twilight 4:21 AM EDT 10:52 PM EDT
Moon 10:45 AM EDT (5/4) 12:55 AM EDT (5/4)
Length of Visible Light 15h 33m
Length of Day
14h 27m
Waxing Crescent, 27% of the Moon is Illuminated
May 4
Waxing Crescent
May 6
First Quarter
May 14
Full
May 21
Last Quarter
May 28
New

Hourly Weather History & Observations

Time (EDT) Temp. Windchill Dew Point Humidity Pressure Visibility Wind Dir Wind Speed Gust Speed Precip Events Conditions
12:54 AM 34.0 °F 31.0 °F 32.0 °F 92% 29.79 in 10.0 mi West 3.5 mph - N/A   Clear
1:54 AM 37.0 °F 31.6 °F 34.0 °F 89% 29.80 in 10.0 mi West 6.9 mph - N/A   Clear
2:54 AM 33.1 °F 28.7 °F 30.9 °F 92% 29.80 in 10.0 mi WNW 4.6 mph - N/A   Clear
3:54 AM 30.9 °F - 28.9 °F 92% 29.80 in 10.0 mi Calm Calm - N/A   Clear
4:54 AM 32.0 °F - 30.0 °F 92% 29.81 in 10.0 mi Calm Calm - N/A   Overcast
5:54 AM 36.0 °F 29.6 °F 32.0 °F 86% 29.83 in 10.0 mi West 8.1 mph - 0.00 in Rain Light Rain
6:34 AM 37.0 °F 30.4 °F 33.1 °F 86% 29.83 in 10.0 mi West 9.2 mph - 0.00 in Rain Light Rain
6:54 AM 37.0 °F 29.8 °F 33.1 °F 86% 29.85 in 10.0 mi WNW 10.4 mph - 0.00 in Rain Light Rain
7:54 AM 37.9 °F 28.9 °F 32.0 °F 79% 29.87 in 10.0 mi WNW 16.1 mph 23.0 mph 0.02 in Rain Light Rain
8:03 AM 37.0 °F 28.9 °F 33.1 °F 86% 29.85 in 10.0 mi WNW 12.7 mph - 0.00 in Rain Light Rain
8:50 AM 37.4 °F 31.4 °F 33.8 °F 87% 29.86 in 10.0 mi West 8.1 mph - 0.01 in   Overcast
8:54 AM 39.0 °F 32.3 °F 35.1 °F 86% 29.88 in 10.0 mi WNW 10.4 mph - 0.01 in   Overcast
9:54 AM 42.1 °F 33.1 °F 30.9 °F 65% 29.90 in 10.0 mi WNW 20.7 mph - N/A   Clear
10:54 AM 44.1 °F 36.2 °F 32.0 °F 63% 29.92 in 10.0 mi WNW 18.4 mph 24.2 mph N/A   Clear
11:54 AM 46.0 °F 38.8 °F 32.0 °F 58% 29.96 in 10.0 mi WNW 18.4 mph 26.5 mph N/A   Clear
12:51 PM 46.4 °F 40.1 °F 33.8 °F 62% 29.96 in 10.0 mi NNW 15.0 mph 27.6 mph N/A   Mostly Cloudy
12:54 PM 46.0 °F 39.0 °F 33.1 °F 61% 29.98 in 10.0 mi NW 17.3 mph 27.6 mph N/A   Mostly Cloudy
1:32 PM 46.0 °F 39.0 °F 34.0 °F 63% 29.97 in 10.0 mi WNW 17.3 mph 24.2 mph N/A   Overcast
1:54 PM 45.0 °F 37.9 °F 34.0 °F 65% 30.00 in 10.0 mi WNW 16.1 mph - N/A   Overcast
2:08 PM 44.1 °F 38.1 °F 34.0 °F 68% 29.98 in 10.0 mi WNW 11.5 mph - N/A   Overcast
2:29 PM 45.0 °F 37.4 °F 33.1 °F 63% 29.98 in 10.0 mi WNW 18.4 mph 25.3 mph N/A   Overcast
2:54 PM 45.0 °F 37.6 °F 34.0 °F 65% 30.02 in 10.0 mi West 17.3 mph - N/A   Overcast
3:10 PM 46.0 °F 39.9 °F 34.0 °F 63% 30.00 in 10.0 mi WNW 13.8 mph 20.7 mph N/A   Overcast
3:43 PM 46.0 °F 38.8 °F 34.0 °F 63% 30.00 in 10.0 mi West 18.4 mph 23.0 mph 0.00 in   Overcast
3:54 PM 45.0 °F 38.2 °F 35.1 °F 68% 30.03 in 10.0 mi West 15.0 mph - 0.00 in Rain Light Rain
4:52 PM 44.6 °F 37.8 °F 33.8 °F 66% 30.02 in 10.0 mi WNW 15.0 mph - 0.00 in   Overcast
4:54 PM 45.0 °F 38.2 °F 34.0 °F 65% 30.04 in 10.0 mi WNW 15.0 mph - 0.00 in   Overcast
5:45 PM 44.1 °F 38.1 °F 34.0 °F 68% 30.04 in 10.0 mi West 11.5 mph - N/A   Overcast
5:54 PM 43.0 °F 36.4 °F 34.0 °F 71% 30.07 in 10.0 mi West 12.7 mph - N/A   Overcast
6:54 PM 43.0 °F 36.8 °F 34.0 °F 71% 30.07 in 10.0 mi WNW 11.5 mph - N/A   Overcast
7:54 PM 42.1 °F 35.7 °F 34.0 °F 73% 30.07 in 10.0 mi NW 11.5 mph - N/A   Overcast
9:54 PM 39.0 °F 34.0 °F 34.0 °F 82% 30.11 in 10.0 mi WNW 6.9 mph - N/A   Overcast
10:54 PM 39.0 °F 35.7 °F 34.0 °F 82% 30.11 in 10.0 mi WNW 4.6 mph - N/A   Overcast
11:54 PM 37.9 °F 32.7 °F 34.0 °F 86% 30.12 in 10.0 mi WNW 6.9 mph - N/A   Overcast